{"data":{"norad_id":54124,"epoch":"2026-09-20T00:32:21.616224Z","epoch_age_seconds":67292,"freshness":"FRESH","line1":"1 54124U 22138M   26263.02247241  .00000073  00000+0  14934-3 0  9996","line2":"2 54124  87.9110 286.0740 0001982  82.4849 277.6509 13.19725719189319","mean_motion":13.19725719,"eccentricity":0.0001982,"inclination_deg":87.911,"raan_deg":286.074,"arg_perigee_deg":82.4849,"mean_anomaly_deg":277.6509,"bstar":0.00014934,"rev_number":18931,"period_min":109.11358165325,"perigee_km":1184.2686388027,"apogee_km":1187.2669706673,"semimajor_km":7563.904804735,"source":"CELESTRAK","updated_at":"2026-09-20T09:00:44.717179Z"}}